Temperature
15 15 14 14 14 14 14 14 13 13 13 13 13 13 12 12 12 12 12 12 12 12 12 12 12 11 11 11 11 11 11 11 11 11 11 11 11 11 10 10 10 10 10
15 14 14 14 14 14 13 13 13 13 13 13 13 12 12 12 12 12 12 12 12 11 11 11 11 11 11 11 11 11 11 11 11 11 11 10 10 10 10 10 10 10 10
14 14 14 14 14 13 13 13 13 13 13 13 13 12 12 12 12 12 11 11 11 11 11 11 11 11 11 11 11 11 11 11 11 11 10 10 10 10 10 10 10 10 10
14 14 14 14 13 13 13 13 13 12 12 12 12 12 12 12 12 11 11 11 11 11 11 11 11 11 11 11 11 10 10 10 10 10 10 10 10 10 10 10 9 9 9
14 14 14 14 13 13 13 13 12 12 12 12 12 12 12 11 11 11 11 11 11 11 11 11 10 10 10 10 10 10 10 10 10 10 10 10 10 10 9 9 9 9 9
14 13 13 13 13 13 12 12 12 12 12 11 11 11 11 11 11 11 11 11 11 11 11 10 10 10 10 10 10 10 10 10 10 10 10 9 9 9 9 9 9 9 8
13 13 13 13 13 12 12 12 12 11 11 11 11 11 11 11 11 11 11 11 11 10 10 10 10 10 10 10 10 10 10 10 10 10 9 9 9 9 9 9 9 9 8
13 13 12 12 12 12 12 12 11 11 11 11 11 11 11 11 11 11 11 11 11 10 10 10 10 10 10 10 10 10 10 9 9 9 9 9 9 9 9 9 9 8 8
13 13 12 12 12 12 12 11 11 11 11 11 11 11 11 11 11 11 11 10 10 10 10 10 10 10 10 9 9 9 9 9 9 9 9 9 9 9 9 8 8 8 8
12 12 12 12 12 11 11 11 11 11 10 10 10 10 10 10 10 10 10 10 10 10 9 9 9 9 9 9 9 9 9 9 9 8 8 8 8 8 8 8 8 8 7
12 12 12 12 11 11 11 11 10 10 10 10 10 10 10 10 10 10 10 10 9 9 9 9 9 9 9 9 9 9 9 8 8 8 8 8 8 8 8 8 7 7 7
12 12 11 11 11 11 11 10 10 10 10 10 10 9 9 9 9 9 9 9 9 9 9 9 9 9 9 8 8 8 8 8 8 8 8 8 8 8 8 7 7 7 7
11 11 11 11 11 11 10 10 10 10 9 9 9 9 9 9 9 9 9 9 9 8 8 8 8 8 8 8 8 8 8 8 7 7 7 7 7 7 7 7 7 7 7
11 11 11 10 10 10 10 10 9 9 9 9 9 9 9 9 9 9 9 8 8 8 8 8 8 8 8 8 7 7 7 7 7 7 7 7 7 7 7 6 6 6 6
11 10 10 10 10 10 9 9 9 9 9 9 9 9 9 9 9 9 9 8 8 8 8 7 7 7 7 7 7 7 7 7 7 6 6 6 6 6 6 6 6 6 6
10 10 10 10 9 9 9 9 9 9 9 9 9 9 9 9 8 8 8 8 8 7 7 7 7 7 7 7 7 7 6 6 6 6 6 6 6 6 6 6 5 5 5
10 10 9 9 9 9 9 9 9 8 8 8 8 8 8 8 8 8 8 7 7 7 7 7 6 6 6 6 6 6 6 6 6 6 6 6 5 5 5 5 5 5 5
9 9 9 9 9 9 8 8 8 8 8 8 8 8 8 8 8 7 7 7 7 6 6 6 6 6 6 6 6 6 6 5 5 5 5 5 5 5 5 5 5 4 5
9 9 9 9 8 8 8 8 8 7 7 7 7 7 7 7 7 7 6 6 6 6 6 6 6 6 5 5 5 5 5 5 5 5 5 5 5 5 4 4 4 4 4
8 8 8 8 8 8 7 7 7 7 7 7 7 7 7 6 6 6 6 6 6 6 6 6 5 5 5 5 5 5 5 5 5 5 5 5 4 4 4 4 4 4 4
8 8 8 8 7 7 7 7 7 7 7 7 7 7 7 6 6 6 6 6 6 6 5 5 5 5 5 5 5 5 5 5 5 4 4 4 4 4 4 4 4 4 4
8 7 7 7 7 7 6 6 6 6 6 6 6 6 6 6 6 5 5 5 5 5 5 5 5 5 5 5 5 4 4 4 4 4 4 4 4 4 4 4 3 3 3
7 7 7 6 6 6 6 6 6 6 6 6 6 6 6 5 5 5 5 5 5 5 4 4 4 4 4 4 4 4 4 4 4 4 4 3 3 3 3 3 3 3 3
6 6 6 6 6 5 5 5 5 5 5 5 5 5 5 5 5 5 5 4 4 4 4 4 4 4 4 4 3 4 4 4 4 3 3 3 3 3 3 3 3 3 3
6 6 5 5 5 5 5 5 5 4 5 5 5 5 5 5 4 4 4 4 4 4 3 3 3 3 3 3 3 3 3 3 3 3 3 3 3 3 2 2 2 2 2
5 5 5 5 5 4 4 4 4 4 4 4 4 4 4 4 4 4 4 3 3 3 3 3 3 3 3 3 3 3 3 3 3 3 3 2 2 2 2 2 2 2 2
Wind_Speed
3 2 3 3 2 2 2 1 1 1 1 1 1 1 1 1 1 1 1 1 1 1 1 0 1 1 1 1 0 0 1 1 1 1 1 1 2 2 2 2 3 3 2
3 3 3 3 2 2 1 1 1 1 1 1 1 1 1 0 0 1 1 0 1 1 1 1 1 0 0 0 0 1 1 1 2 1 1 1 1 1 2 1 1 2 2
3 3 4 4 3 2 2 1 1 1 1 1 0 1 1 1 0 1 0 0 1 1 1 1 1 1 1 1 0 1 1 1 1 2 1 0 0 1 1 1 0 0 1
3 3 3 4 3 3 3 2 2 1 1 1 0 1 1 1 0 0 0 1 0 1 1 1 1 1 1 1 1 1 1 1 1 1 1 1 1 0 2 0 1 1 1
3 3 3 3 3 2 2 2 2 2 1 1 1 0 0 1 0 0 0 1 0 0 0 0 0 1 1 0 0 1 1 1 1 1 1 1 0 1 1 1 1 0 1
3 2 3 3 2 2 2 2 2 2 1 0 1 1 0 1 0 1 0 1 0 0 0 0 1 1 1 1 1 1 1 1 1 1 1 1 1 1 1 1 1 0 2
3 2 3 3 3 2 2 2 2 2 1 1 1 1 1 0 1 1 0 1 1 1 0 0 0 0 1 1 1 0 0 1 2 2 1 2 2 2 2 1 1 1 2
3 3 3 3 3 2 2 2 2 2 2 1 1 1 1 1 1 1 1 1 1 1 1 0 1 1 1 1 1 1 1 1 2 2 2 2 1 1 2 3 2 1 1
3 3 3 3 3 3 3 2 2 2 2 2 1 1 1 1 1 1 1 1 1 1 0 1 1 2 1 1 1 1 1 1 1 2 2 2 1 1 1 1 1 1 1
2 2 2 3 3 3 3 2 2 2 3 3 2 2 2 2 3 3 2 1 1 1 1 1 1 2 2 1 1 1 0 1 1 1 1 2 1 1 2 2 2 2 1
2 2 1 2 3 3 3 2 2 2 3 3 3 2 2 2 3 4 4 2 1 1 1 1 1 3 2 1 1 1 1 1 1 1 1 1 1 1 1 1 1 2 2
2 2 2 2 2 2 2 3 3 3 3 3 3 2 2 2 2 3 4 4 2 1 1 0 2 4 3 2 1 1 1 0 1 0 0 1 1 1 1 1 0 1 1
2 2 3 3 2 3 3 3 2 3 3 3 3 3 2 2 2 3 5 4 3 2 2 2 1 3 4 3 3 3 2 1 1 1 1 1 1 1 1 0 0 1 1
3 3 3 2 2 2 2 2 2 3 3 3 3 3 2 2 1 1 2 3 3 2 1 2 3 3 2 2 2 2 2 2 2 2 2 2 1 0 0 0 1 1 1
3 3 3 2 3 3 2 1 2 3 4 4 3 3 3 3 3 3 2 2 2 2 1 1 1 1 1 1 1 2 2 2 2 2 2 1 1 1 1 1 1 1 1
3 3 2 2 2 2 2 1 1 2 4 5 4 4 3 4 4 3 3 4 4 3 2 2 2 2 2 2 2 2 2 2 2 2 2 1 1 1 2 2 2 2 2
3 2 2 2 2 2 2 2 1 1 2 3 4 4 4 4 4 4 4 4 4 4 3 3 2 3 3 2 2 2 2 2 2 2 2 2 2 2 2 2 2 2 2
2 2 2 2 2 2 2 2 2 2 2 2 2 4 5 5 5 4 3 2 3 3 3 3 3 3 3 3 3 2 2 2 2 2 2 2 2 2 2 2 2 2 2
2 2 2 2 2 2 2 2 2 2 3 2 1 2 4 4 4 4 4 3 3 3 3 3 3 3 2 3 3 3 2 2 2 2 3 3 3 3 3 3 3 4 3
2 3 2 2 2 2 2 2 2 3 3 3 3 3 3 2 2 3 3 3 3 3 3 3 3 3 3 2 2 2 2 2 3 3 3 3 3 3 3 3 3 3 3
2 2 3 3 3 3 2 3 3 3 3 3 3 4 5 4 4 4 4 4 4 4 4 3 3 3 3 2 2 3 3 2 2 3 2 2 2 3 3 3 3 3 3
2 2 2 2 2 2 2 3 3 3 3 3 2 2 5 3 3 3 3 3 3 3 3 3 3 3 3 3 3 2 2 2 2 1 1 2 2 2 2 3 3 3 3
2 2 2 2 2 2 3 2 2 3 3 3 2 2 3 3 3 3 3 3 2 2 2 3 3 2 2 3 3 3 3 3 2 2 2 2 2 2 2 3 3 3 3
2 2 2 2 2 2 2 3 2 3 3 2 2 2 2 3 3 3 3 2 2 2 2 2 3 3 3 3 3 4 4 3 3 3 3 3 3 3 3 3 3 4 4
2 2 2 2 2 2 3 3 3 3 3 2 2 2 2 2 2 2 2 2 2 2 2 2 2 3 4 4 4 4 4 4 4 3 3 3 3 3 3 3 3 3 4
2 2 2 2 3 3 3 3 3 3 2 2 2 2 2 2 2 2 2 2 2 2 2 2 3 3 3 4 4 4 5 5 5 4 3 2 3 3 3 3 4 4 4
Wind_Direction
167 159 152 141 148 151 166 165 143 115 123 155 163 176 138 134 136 134 136 137 162 211 241 147 237 173 184 170 122 22 311 137 165 281 308 117 114 120 106 125 127 125 125
165 162 158 153 145 140 140 133 117 108 132 157 161 159 137 128 119 131 150 181 185 197 210 195 239 229 214 176 166 208 242 190 153 183 282 42 94 128 132 142 136 147 144
161 165 161 154 153 162 155 137 126 132 99 104 150 144 138 122 68 42 59 200 197 204 205 206 227 221 235 236 233 204 202 180 139 156 201 190 214 127 107 112 4 71 195
159 169 167 162 157 161 157 152 142 140 118 110 155 136 121 111 94 260 247 282 185 207 222 214 209 225 246 210 211 186 149 151 170 150 164 197 197 142 106 129 311 320 304
163 166 154 137 128 134 143 143 131 126 131 134 113 96 122 161 228 100 258 284 262 259 245 183 127 84 57 111 203 150 114 148 178 167 186 171 143 101 169 210 217 285 310
161 157 137 132 128 132 139 133 125 125 142 118 126 146 178 282 117 123 100 274 268 297 244 201 155 107 83 102 86 112 126 157 200 195 208 184 190 180 177 207 201 114 297
163 155 143 142 147 151 143 130 139 154 156 155 186 186 192 190 127 111 322 274 215 232 265 266 283 123 71 98 155 122 142 227 209 193 197 219 203 181 162 181 223 228 244
157 151 139 145 151 145 135 144 170 165 173 189 209 206 174 192 136 178 243 238 230 228 213 193 109 76 66 52 193 181 198 251 228 215 204 218 179 154 169 190 204 218 260
159 157 154 156 160 155 160 176 189 179 184 196 212 216 194 201 186 212 199 238 240 226 185 82 113 119 107 46 106 200 214 266 227 189 197 201 205 274 198 152 157 148 265
164 164 162 164 163 169 179 186 198 191 192 194 202 212 212 209 207 202 187 209 256 256 221 152 133 133 140 106 118 148 215 276 285 242 230 244 233 254 256 200 189 184 219
148 147 163 170 170 175 180 188 196 203 199 197 195 207 215 222 204 201 198 213 241 245 242 178 161 157 144 144 124 171 216 256 297 259 188 206 230 225 237 242 191 184 204
135 163 177 185 187 174 176 202 203 202 203 204 201 213 211 202 202 214 216 228 250 237 246 206 179 183 185 184 198 207 182 349 294 281 229 227 213 228 229 217 200 294 230
166 198 195 191 184 174 179 197 205 203 207 208 206 215 215 202 209 215 223 234 248 256 244 207 184 191 195 208 220 220 207 195 202 199 213 235 225 215 181 130 20 347 312
185 200 199 188 175 178 185 194 200 204 211 217 215 217 212 201 198 214 227 227 235 251 259 204 187 189 199 211 220 228 220 210 196 203 219 229 219 161 150 201 227 255 285
196 196 198 194 183 187 189 208 214 208 200 209 224 218 209 217 226 217 211 222 226 226 217 209 199 183 201 210 201 207 213 211 227 231 223 228 230 209 223 217 212 226 229
215 203 196 191 187 181 174 205 323 224 203 206 213 209 220 221 219 220 227 233 232 215 195 203 217 210 204 206 207 214 212 212 220 227 222 223 222 228 232 225 212 221 238
218 206 190 186 188 191 188 193 236 292 243 221 212 207 212 214 215 222 231 232 226 199 204 212 217 213 209 210 210 209 216 216 206 215 218 220 220 232 234 230 224 233 247
223 214 191 183 188 201 207 207 213 231 241 246 224 209 209 208 209 214 210 194 207 203 210 212 220 217 207 207 212 218 221 216 210 213 210 218 217 222 231 237 233 238 247
212 201 186 182 191 206 218 219 219 235 240 229 204 213 206 205 203 200 180 199 206 206 216 221 220 221 218 208 208 212 215 217 217 224 223 221 219 217 227 233 239 249 250
216 211 202 198 202 212 213 222 234 241 243 227 213 204 183 175 203 205 211 217 211 210 211 220 225 222 215 209 208 206 214 220 219 227 231 227 224 223 226 229 233 240 243
213 214 212 214 210 213 215 223 230 239 243 238 227 205 191 199 206 211 217 221 217 216 217 219 218 212 207 200 203 209 211 218 218 228 235 238 236 231 229 230 236 238 239
219 220 218 217 213 220 237 235 234 241 248 243 239 212 190 201 214 217 223 227 227 226 218 219 220 209 202 197 196 200 213 225 233 242 252 265 263 250 239 237 237 237 234
233 227 222 220 219 234 245 249 241 243 249 241 222 207 203 211 218 225 229 225 220 217 213 210 210 210 197 189 192 195 199 208 215 232 249 253 259 257 250 241 239 243 241
240 234 224 223 229 233 238 247 244 248 248 237 229 216 212 217 221 224 224 215 207 214 222 222 214 209 211 206 198 187 182 187 194 212 230 237 245 251 253 252 247 241 240
242 239 234 228 233 240 242 246 250 247 241 242 242 235 222 224 226 221 214 203 194 205 216 222 223 217 216 215 202 185 188 193 200 207 211 228 243 247 250 252 251 249 245
246 249 248 240 238 239 239 246 252 248 243 248 247 243 237 229 227 225 213 198 200 209 215 224 228 225 225 211 198 202 204 202 201 203 208 222 239 246 254 251 248 246 244
Height
1502 1504 1505 1507 1508 1509 1510 1511 1512 1512 1513 1513 1514 1514 1514 1514 1515 1515 1515 1515 1515 1516 1516 1517 1517 1518 1518 1518 1518 1519 1519 1520 1520 1520 1521 1521 1521 1521 1521 1521 1521 1521 1521
1500 1502 1503 1504 1506 1507 1508 1509 1510 1510 1511 1511 1512 1512 1512 1513 1513 1513 1513 1513 1514 1514 1515 1515 1516 1516 1516 1516 1516 1517 1517 1518 1518 1518 1519 1519 1519 1519 1519 1519 1520 1520 1519
1498 1500 1501 1502 1503 1504 1505 1506 1507 1508 1509 1509 1510 1510 1510 1511 1511 1511 1511 1512 1512 1513 1513 1513 1514 1514 1514 1515 1515 1515 1515 1516 1516 1517 1517 1518 1518 1518 1518 1518 1518 1518 1518
1496 1497 1499 1500 1501 1502 1503 1504 1505 1505 1506 1507 1507 1508 1508 1508 1509 1509 1509 1510 1510 1511 1511 1512 1512 1512 1513 1513 1513 1513 1513 1514 1514 1515 1515 1516 1516 1516 1516 1516 1516 1516 1517
1495 1495 1497 1498 1499 1500 1501 1501 1502 1503 1504 1504 1505 1505 1506 1506 1507 1507 1508 1508 1508 1509 1509 1509 1510 1510 1510 1511 1511 1511 1511 1511 1512 1513 1513 1513 1514 1514 1514 1514 1514 1515 1515
1493 1494 1495 1496 1496 1497 1498 1499 1499 1500 1501 1502 1502 1503 1503 1504 1504 1505 1506 1506 1506 1507 1507 1507 1508 1508 1508 1508 1509 1509 1509 1509 1510 1510 1511 1511 1511 1512 1512 1513 1513 1512 1512
1491 1492 1492 1493 1494 1495 1496 1496 1497 1498 1499 1499 1500 1500 1500 1501 1502 1503 1503 1504 1504 1504 1505 1505 1505 1505 1505 1506 1506 1506 1507 1507 1508 1509 1508 1509 1510 1510 1510 1510 1510 1511 1511
1488 1489 1490 1490 1491 1492 1493 1493 1494 1495 1496 1496 1497 1498 1498 1499 1499 1500 1501 1501 1502 1502 1503 1503 1503 1503 1503 1503 1503 1503 1504 1504 1505 1506 1506 1507 1508 1508 1508 1508 1508 1509 1509
1486 1486 1487 1488 1489 1489 1490 1491 1491 1492 1493 1494 1494 1495 1496 1496 1497 1497 1498 1498 1499 1499 1500 1500 1500 1500 1500 1501 1501 1500 1501 1502 1503 1503 1504 1504 1505 1505 1506 1506 1506 1506 1506
1483 1484 1485 1485 1486 1487 1487 1488 1489 1490 1490 1491 1491 1492 1493 1493 1494 1494 1495 1495 1495 1496 1497 1497 1497 1497 1498 1498 1498 1498 1498 1499 1499 1500 1501 1501 1502 1502 1503 1503 1503 1503 1503
1481 1481 1482 1483 1484 1484 1485 1486 1486 1487 1488 1488 1489 1489 1490 1491 1491 1491 1492 1492 1493 1493 1493 1493 1494 1494 1495 1495 1495 1495 1495 1496 1496 1497 1497 1498 1499 1499 1500 1500 1501 1501 1501
1478 1478 1479 1480 1481 1482 1482 1483 1484 1484 1485 1485 1486 1486 1487 1487 1488 1488 1488 1489 1489 1490 1490 1490 1491 1491 1491 1492 1492 1492 1492 1493 1493 1494 1494 1495 1495 1496 1497 1498 1498 1498 1499
1475 1476 1476 1477 1478 1479 1479 1480 1481 1481 1482 1482 1482 1483 1483 1484 1484 1485 1485 1486 1486 1486 1487 1487 1487 1488 1488 1488 1489 1489 1489 1489 1490 1490 1491 1492 1493 1493 1494 1494 1495 1495 1495
1471 1472 1474 1474 1475 1476 1476 1477 1477 1478 1478 1478 1479 1479 1479 1480 1480 1480 1481 1482 1482 1483 1483 1483 1484 1484 1484 1484 1485 1485 1486 1486 1487 1487 1488 1489 1490 1490 1491 1491 1491 1491 1492
1468 1469 1470 1471 1472 1472 1473 1473 1473 1474 1474 1474 1474 1475 1475 1475 1476 1477 1477 1477 1478 1479 1479 1480 1480 1480 1480 1481 1481 1482 1482 1483 1483 1484 1485 1486 1486 1487 1487 1488 1488 1488 1488
1465 1466 1466 1467 1468 1469 1469 1470 1470 1471 1471 1472 1472 1472 1472 1472 1473 1473 1473 1474 1474 1475 1476 1475 1476 1476 1477 1477 1478 1478 1479 1480 1480 1481 1482 1482 1483 1483 1484 1484 1485 1485 1485
1461 1462 1463 1463 1464 1465 1466 1466 1466 1467 1468 1468 1468 1468 1468 1468 1469 1469 1469 1469 1470 1471 1471 1471 1472 1472 1473 1474 1474 1475 1475 1476 1477 1477 1478 1478 1479 1480 1480 1481 1481 1481 1481
1458 1459 1459 1459 1460 1461 1462 1462 1462 1463 1463 1463 1464 1464 1464 1464 1464 1465 1465 1465 1465 1466 1466 1467 1468 1468 1469 1470 1470 1471 1472 1473 1473 1474 1474 1475 1475 1476 1476 1477 1477 1477 1477
1454 1455 1456 1456 1456 1457 1458 1458 1458 1459 1459 1459 1459 1459 1460 1460 1461 1461 1461 1460 1460 1461 1462 1462 1463 1464 1465 1466 1467 1467 1468 1469 1469 1469 1470 1471 1471 1472 1472 1473 1473 1473 1474
1451 1452 1452 1452 1453 1453 1454 1454 1454 1454 1454 1454 1454 1454 1455 1455 1455 1455 1456 1456 1456 1457 1457 1458 1459 1460 1460 1461 1462 1463 1464 1464 1465 1465 1466 1466 1467 1468 1468 1468 1469 1469 1469
1447 1448 1448 1449 1449 1449 1449 1450 1450 1450 1450 1450 1450 1450 1451 1451 1451 1451 1451 1451 1452 1452 1453 1454 1455 1455 1456 1457 1458 1458 1459 1460 1460 1461 1461 1462 1462 1463 1463 1464 1464 1464 1464
1443 1443 1444 1445 1445 1445 1446 1446 1446 1446 1446 1446 1446 1446 1447 1447 1447 1447 1447 1447 1448 1449 1449 1450 1450 1451 1452 1452 1453 1454 1454 1455 1455 1456 1456 1457 1458 1458 1459 1459 1459 1460 1460
1440 1440 1440 1441 1441 1442 1442 1442 1442 1442 1442 1442 1442 1442 1442 1442 1443 1443 1443 1443 1444 1444 1445 1445 1446 1446 1447 1448 1448 1449 1449 1450 1450 1451 1451 1452 1452 1453 1453 1454 1454 1455 1455
1436 1436 1436 1437 1437 1437 1438 1438 1438 1438 1438 1438 1437 1437 1437 1438 1438 1438 1439 1439 1440 1440 1440 1441 1441 1442 1443 1443 1444 1444 1445 1446 1446 1446 1447 1447 1447 1448 1448 1449 1449 1450 1450
1432 1432 1433 1433 1433 1433 1434 1433 1434 1434 1433 1433 1433 1433 1433 1433 1434 1434 1434 1435 1435 1435 1436 1437 1437 1437 1438 1438 1439 1439 1440 1441 1441 1441 1442 1442 1442 1443 1443 1444 1444 1445 1445
1428 1428 1429 1429 1429 1429 1429 1429 1429 1429 1429 1429 1429 1429 1429 1429 1429 1429 1429 1430 1430 1431 1431 1432 1432 1433 1433 1434 1434 1435 1435 1436 1436 1437 1437 1438 1438 1438 1438 1438 1438 1439 1440